Location: Unspecified
(0.0000°N, 0.0000°E)
Time: 20:24:36
(UTC+00:00)

Tiros 1 despin weight - Pass Details

Date: 31 May 2022
Orbit: 591 x 639 km, 48.2° (Epoch: 25 June)

Event Time Altitude Azimuth Distance (km) Brightness Sun altitude
Rises 11:53:27 0° 194° (SSW) 2,935 ? 68.0°
Reaches altitude 10° 11:56:20 10° 177° (S) 2,024 ? 68.0°
Maximum altitude 11:59:44 20° 130° (SE) 1,474 ? 68.0°
Drops below altitude 10° 12:03:07 10° 83° (E) 2,012 ? 68.0°
Sets 12:05:57 0° 66° (ENE) 2,911 ? 68.0°
